Meteo Giornale » Osservazioni meteo Stati Uniti (USA) » Bennington Morse State
ore: 16:54 - Osservazioni Meteo Bennington Morse State
Lat. 42° 53' N Lon. 73° 14' W Alt. 252 metri s.l.m.
22 °C
Coperto
Temp. 24 Ore
18 °C
22 °C
Nord
9.3 Km/h
Dew point 17 °C
Umidità 73 %
Visibilità 10 Km
Il sole sorge alle ore 06:17
Il sole tramonta alle ore 19:27
| Data e Ora | Cielo e Fenomeni | T °C | DP °C | Um. % | Pres. hPa | Vis. km | Vento km/h | |
|---|---|---|---|---|---|---|---|---|
| Oggi h: 16:54 | Coperto | 22 | 17 | 73 | 1016 | 10 | N 9.3 | |
| Oggi h: 15:54 | Coperto | 21 | 17 | 77 | 1016 | 10 | E 9.3 | |
| Oggi h: 15:05 | Coperto | 21 | 19 | 88 | 1016 | 10 | N 7.4 | |
| Oggi h: 14:54 | Coperto | 21 | 19 | 88 | 1016 | 10 | N 5.5 | |
| Oggi h: 13:54 | Coperto | 20 | 19 | 93 | 1016 | 14 | N 5.5 | |
| Oggi h: 13:22 | Coperto | 20 | 19 | 93 | 1016 | 10 | N 0 | |
| Oggi h: 13:01 | Coperto | 20 | 19 | 93 | 1016 | 10 | N 0 | |
| Oggi h: 12:54 | Coperto | 20 | 19 | 93 | 1016 | 10 | N 0 | |
| Oggi h: 12:43 | Coperto | 20 | 19 | 93 | 1016 | 10 | N 0 | |
| Oggi h: 11:54 | Pioggia | 20 | 18 | 88 | 1016 | 10 | N 0 | |
| Oggi h: 11:38 | Pioggia Foschia | 19 | 18 | 93 | 1014 | 5 | N 9.3 | |
| Oggi h: 11:27 | Pioggia Foschia | 19 | 18 | 93 | 1015 | 5 | E/SE 11.1 | |
| Oggi h: 11:12 | Pioggia | 19 | 18 | 93 | 1016 | 14 | N 5.5 | |
| Oggi h: 11:05 | Pioggia | 19 | 18 | 93 | 1016 | 10 | E 9.3 | |
| Oggi h: 10:54 | Pioggia | 20 | 18 | 88 | 1016 | 11 | N 0 | |
| Oggi h: 10:51 | Pioggia | 20 | 18 | 88 | 1016 | 13 | N 0 | |
| Oggi h: 10:39 | Coperto | 20 | 18 | 88 | 1016 | 10 | N 0 | |
| Oggi h: 09:54 | Coperto | 19 | 17 | 88 | 1016 | 10 | E/SE 11.1 | |
| Oggi h: 09:37 | Pioggia Foschia | 19 | 17 | 88 | 1016 | 6 | E/SE 9.3 | |
| Oggi h: 09:27 | Pioggia Foschia | 19 | 17 | 88 | 1016 | 3 | E/SE 11.1 | |
| Oggi h: 08:54 | Coperto | 19 | 18 | 93 | 1017 | 10 | N 0 | |
| Oggi h: 07:54 | Pioggia Foschia | 18 | 18 | 100 | 1016 | 6 | N 5.5 | |
| Oggi h: 07:02 | Pioggia Foschia | 18 | 17 | 93 | 1017 | 5 | N 5.5 | |
| Oggi h: 06:54 | Pioggia Foschia | 18 | 18 | 100 | 1017 | 5 | N 0 | |
| Oggi h: 06:48 | Pioggia Foschia | 18 | 18 | 100 | 1017 | 5 | N 0 | |
| Oggi h: 06:30 | Pioggia Foschia | 19 | 17 | 88 | 1016 | 6 | E 9.3 | |
| Oggi h: 05:54 | Pioggia | 19 | 17 | 88 | 1016 | 10 | N 5.5 | |
| Oggi h: 04:54 | Coperto | 18 | 17 | 93 | 1016 | 10 | N 0 | |
| Oggi h: 03:54 | Coperto | 18 | 17 | 93 | 1017 | 10 | N 0 | |
| Oggi h: 02:54 | Coperto | 18 | 17 | 93 | 1017 | 10 | N 0 | |
| Oggi h: 01:54 | Coperto | 19 | 17 | 88 | 1017 | 10 | N 5.5 | |
| Oggi h: 00:54 | Coperto | 18 | 18 | 100 | 1018 | 10 | N 0 | |
| Oggi h: 00:19 | Coperto | 18 | 18 | 100 | 1018 | 10 | N 0 | |
| Ieri h: 23:54 | Coperto | 18 | 18 | 100 | 1018 | 10 | N 0 | |
| Ieri h: 23:43 | Coperto | 18 | 18 | 100 | 1018 | 10 | N 0 | |
| Ieri h: 23:09 | Coperto | 18 | 18 | 100 | 1018 | 10 | N 0 | |
| Ieri h: 22:54 | Coperto | 18 | 18 | 100 | 1018 | 10 | N 0 | |
| Ieri h: 21:54 | Coperto | 18 | 18 | 100 | 1018 | 14 | N 0 | |
| Ieri h: 20:54 | Coperto | 18 | 18 | 100 | 1018 | 10 | N 0 | |
| Ieri h: 19:54 | Coperto | 19 | 18 | 93 | 1018 | 13 | N 0 | |
| Ieri h: 19:39 | Coperto | 19 | 18 | 93 | 1018 | 10 | N 0 | |
| Ieri h: 19:25 | Coperto | 19 | 18 | 93 | 1018 | 10 | N 0 | |
| Ieri h: 18:54 | Pioggia | 21 | 18 | 82 | 1019 | 8 | N 5.5 | |
| Ieri h: 17:54 | Coperto | 22 | 17 | 73 | 1018 | 10 | N 0 | |



